Regional Weather Roundup
Issued by NWS

Home | Current Version | Previous Version | Text Only | Print | Product List | Glossary On
Versions: 1 2 3 4 5 6 7 8 9 10 11 12 13 14 15 16 17 18 19 20 21 22 23 24 25 26 27 28 29 30 31 32 33 34 35 36 37 38 39 40 41 42 43 44 45 46 47 48 49 50
000
ASUS43 KBIS 301920
RWRND

NORTH DAKOTA REGIONAL WEATHER ROUNDUP
NATIONAL WEATHER SERVICE BISMARCK ND
200 PM CDT THU OCT 30 2014

NOTE: "FAIR" INDICATES FEW OR NO CLOUDS BELOW 12,000 FEET WITH NO
SIGNIFICANT WEATHER AND/OR OBSTRUCTIONS TO VISIBILITY.


NDZ001>003-009>011-017-302000-
NORTHWEST NORTH DAKOTA

CITY           SKY/WX    TMP DP  RH WIND       PRES   REMARKS
WILLISTON      CLOUDY    38  31  76 N9        30.44R
MINOT          CLOUDY    33  24  69 N12       30.44R
MINOT AFB      CLOUDY    33  26  75 N12G18    30.44S
$$

NDZ018>021-031>035-040>046-302000-
SOUTHWEST NORTH DAKOTA

CITY           SKY/WX    TMP DP  RH WIND       PRES   REMARKS
BISMARCK       CLOUDY    36  32  85 N14       30.42R
DICKINSON      CLOUDY    36  32  85 E7        30.39R
GARRISON         N/A     34  28  79 N9        30.42R
HETTINGER ARPT CLOUDY    37  31  78 N10       30.39R
$$

NDZ004>008-012>016-024-026-027-054-302000-
NORTHEAST NORTH DAKOTA

CITY           SKY/WX    TMP DP  RH WIND       PRES   REMARKS
GRAND FORKS    CLOUDY    36  25  64 N21G31    30.34R
GRND FRKS AFB  CLOUDY    36  25  64 N21G29    30.35R
DEVILS LAKE    PTSUNNY   34  18  51 N22       30.38S
$$

NDZ022-023-025-028>030-036>039-047>053-302000-
SOUTHEAST NORTH DAKOTA

CITY           SKY/WX    TMP DP  RH WIND       PRES   REMARKS
FARGO          CLOUDY    38  33  82 N23G29    30.30R
JAMESTOWN      CLOUDY    36  28  73 N23G29    30.35R
$$




USA.gov is the U.S. government's official web portal to all federal, state and local government web resources and services.